Location: Albany
(42.6526°N, 73.7562°W)
Time: 01:15:11
(UTC+00:00)

Cosmos 2034 Rocket - Pass Details

Date: 19 November 2019
Orbit: 959 x 1000 km, 82.9° (Epoch: 05 December)

Event Time Altitude Azimuth Distance (km) Brightness Sun altitude
Rises 22:07:33 0° 358° (N) 3,722 6.9 -7.3°
Reaches altitude 10° 22:10:16 10° 6° (N) 2,772 6.1 -7.8°
Maximum altitude 22:16:15 41° 75° (ENE) 1,411 4.4 -8.8°
Drops below altitude 10° 22:22:12 10° 145° (SE) 2,763 6.2 -9.9°
Sets 22:24:53 0° 152° (SSE) 3,707 6.9 -10.4°
